Вернуться в каталог

STARLINK-3829

АктивенСвязьVLEO
NORAD 52348·PAYLOAD·🇺🇸 United States

Запущен Apr 29, 2022 с Cape Canaveral Space Force Station

Loading…

Ближайшие Пролёты (ближайшие 24 часа)

TLE

СвежийSource: CelesTrak SupGP

Эпоха: Sep 14, 2026, 14:48 UTC

1 52348C 22045T   26257.61715278 -.00031555  00000+0 -90270-3 0  2572
2 52348  53.1595  58.4504 0001222  93.6460 271.5387 15.35418220    18

Отслеживайте STARLINK-3829 в реальном времени с AllMySat

Download on the App Store